Location: Unspecified
(0.0000°N, 0.0000°E)
Time: 17:29:33
(UTC+02:00)

ISS - All Passes

Search period start: 01 October 2016 00:00
Search period end: 11 October 2016 00:00
Orbit: 400 x 409 km, 51.6° (Epoch: 02 October)

Date Brightness Start Highest point End Pass type
(mag) Time Alt. Az. Time Alt. Az. Time Alt. Az.
01 Oct - 06:10:16 10° NW 06:13:26 45° SW 06:16:36 10° SSE visible
01 Oct - 17:44:13 10° SW 17:47:27 80° NW 17:50:41 10° NNE daylight
02 Oct - 05:18:07 10° NNW 05:21:21 56° NE 05:24:35 10° SE night (unlit)
02 Oct - 16:52:25 10° S 16:55:22 32° SE 16:58:18 10° ENE daylight
03 Oct - 04:26:45 10° N 04:29:16 20° NE 04:31:46 10° ESE night (unlit)
03 Oct - 06:04:10 10° WSW 06:05:32 12° SW 06:06:56 10° SSW night (unlit)
03 Oct - 16:01:46 10° SSE 16:03:15 13° SE 16:04:44 10° E daylight
03 Oct - 17:37:11 10° W 17:39:32 18° NW 17:41:53 10° N daylight
04 Oct - 05:10:28 10° WNW 05:13:25 30° SW 05:16:22 10° S night (unlit)
04 Oct - 16:44:15 10° SW 16:47:25 51° NW 16:50:35 10° NNE daylight
05 Oct - 04:18:01 10° NW 04:21:17 87° NE 04:24:36 10° SE night (unlit)
05 Oct - 15:52:10 10° SSW 15:55:18 47° SE 15:58:26 10° NE daylight
06 Oct - 03:26:17 10° N 03:29:10 28° NE 03:32:03 10° ESE night (unlit)
06 Oct - 15:00:53 10° S 15:03:10 17° SE 15:05:25 10° E daylight
06 Oct - 16:37:46 10° W 16:39:26 13° NW 16:41:05 10° NNW daylight
07 Oct - 02:35:57 10° NE 02:37:00 11° NE 02:38:03 10° ENE night (unlit)
07 Oct - 04:10:42 10° WNW 04:13:17 21° SW 04:15:53 10° S night (unlit)
07 Oct - 15:44:17 10° WSW 15:47:16 34° NW 15:50:15 10° NNE daylight
08 Oct - 03:17:54 10° NW 03:21:07 62° SW 03:24:23 10° SSE night (unlit)
08 Oct - 14:51:52 10° SSW 14:55:08 74° SE 14:58:21 10° NE daylight
09 Oct - 02:25:52 10° NNW 02:28:58 41° NE 02:32:05 10° SE night (unlit)
09 Oct - 14:00:13 10° S 14:02:57 24° SE 14:05:40 10° ENE daylight
10 Oct - 01:34:44 10° NNE 01:36:47 15° NE 01:38:50 10° E night (unlit)
10 Oct - 03:11:00 10° W 03:13:03 16° SW 03:15:07 10° SSW night (unlit)
10 Oct - 14:44:19 10° WSW 14:47:01 24° NW 14:49:42 10° N daylight
